Location: Góry Miechowskie
(50.3599°N, 20.1803°E)
Time: 08:17:19
(UTC+00:00)

Cosmos 1461 - Pass Details

Date: 14 September 2024
Orbit: 489 x 565 km, 65.0° (Epoch: 12 October)

Event Time Altitude Azimuth Distance (km) Brightness Sun altitude
Exits shadow 01:34:17 16° 332° (NNW) 1,350 4.9 -24.0°
Maximum altitude 01:34:23 16° 334° (NNW) 1,349 4.9 -24.0°
Drops below altitude 10° 01:36:49 10° 14° (NNE) 1,694 6.0 -23.7°
Sets 01:39:39 0° 36° (NE) 2,588 7.5 -23.4°
